sat.trackr.live / text

‹ back to catalog

STARLINK-2592

NORAD 48408 · 2021-038BH

PAYLOAD ACTIVE UNKNOWN

§ Identity

Operator
Country
US
Launch date
2021-05-04
Launch site
AFETR
Launch vehicle
Mass (kg)
RCS (m²)

Purposes: comms

External: N2YO · Heavens-Above · Gunter

§ Orbital elements

Epoch: 2026-09-09T13:30:16.390080Z

Period
94.01 min
Inclination
53.1585°
Eccentricity
0.0001369
Mean motion
15.31705702 rev/d
Perigee alt
469.8 km
Apogee alt
471.7 km
Semi-major
6,848.9 km
B*
1.4151e-4
RAAN
197.4580°
Arg perigee
97.1356°
Mean anomaly
262.9801°
Rev number
29,560

§ Raw data

STARLINK-25921 48408U 21038BH  26252.56268970  .00004029  00000+0  14151-3 0  99972 48408  53.1585 197.4580 0001369  97.1356 262.9801 15.31705702295608

JSON: /api/v1/satellites/48408 · /tle

For live sub-satellite position, see the globe view (requires WebGL).

§ Visibility from observer

Set your observer location to see the next 7 days of passes ≥ 10°. The values pass through the URL so the page stays shareable.

No JS? Fill the form by hand. The geolocation button needs JavaScript.